Regional Weather Roundup
Issued by NWS

Home | Current Version | Previous Version | Graphics & Text | Print | Product List | Glossary On
Versions: 1 2 3 4 5 6 7 8 9 10 11 12 13 14 15 16 17 18 19 20 21 22 23 24 25 26 27 28 29 30 31 32 33 34 35 36 37 38 39 40 41 42 43 44 45 46 47 48 49 50
000
ASUS43 KMPX 010010
RWRMN
WEATHER ROUNDUP FOR MINNESOTA
NATIONAL WEATHER SERVICE TWIN CITIES/CHANHASSEN MN
700 PM CDT FRI JUL 31 2015


NOTE: "FAIR" INDICATES FEW OR NO CLOUDS BELOW 12,000 FEET WITH NO
SIGNIFICANT WEATHER AND/OR OBSTRUCTIONS TO VISIBILITY. N/A MEANS
CURRENT SKY AND/OR WEATHER CONDITIONS ARE NOT AVAILABLE.

MNZ060>063-068>070-010100-
   Twin Cities Metro

CITY           SKY/WX    TMP DP  RH WIND       PRES   REMARKS
TWIN CITIES    MOSUNNY   80  52  37 NW20      29.98F
6HR MIN TEMP:  80; 6HR MAX TEMP:  82;

ST PAUL        MOSUNNY   78  52  40 NW20      29.97F
CRYSTAL        MOSUNNY   81  53  37 W14G21    29.97F
BLAINE         MOSUNNY   81  54  39 NW9       29.97F
LAKEVILLE      SUNNY     77  55  47 W7        30.00S
EDEN PRAIRIE   SUNNY     81  54  39 NW14      29.98F
6HR MIN TEMP:  81; 6HR MAX TEMP:  83;

SOUTH ST PAUL  MOSUNNY   81  50  34 NW12      29.97F
LAKE ELMO      FAIR      79  54  41 NW7       29.99F
$$
MNZ001>005-007-008-013>017-022>024-027-028-010100-
   Northwest Minnesota

CITY           SKY/WX    TMP DP  RH WIND       PRES   REMARKS
BEMIDJI        MOSUNNY   75  48  38 NW13      29.97F
HALLOCK        SUNNY     79  48  34 NW8       29.95F
ROSEAU         SUNNY     73  54  49 NW14      29.95S
WARROAD        MOSUNNY   73  54  49 W15G24    29.94F
THIEF RVR FALL SUNNY     75  48  38 W12       29.97F
CROOKSTON      SUNNY     79  52  38 NW12      29.97F
FOSSTON        SUNNY     77  46  33 NW10      29.99F
DETROIT LAKES  SUNNY     77  54  44 NW10      30.02F
MOORHEAD       SUNNY     79  61  53 N6        29.99F
PARK RAPIDS    MOSUNNY   77  50  38 NW13      29.99F
MAHNOMEN       FAIR      76  50  40 NW9       29.99F
$$
MNZ006-009>011-018-025>026-010100-
   North Central Minnesota

CITY           SKY/WX    TMP DP  RH WIND       PRES   REMARKS
BAUDETTE       MOSUNNY   73  49  42 NW16G26   29.92F
FLAG ISLAND    MOSUNNY   73  52  46 W20G31    29.90S
INTL FALLS     PTSUNNY   73  53  49 W14G21    29.90S
6HR MIN TEMP:  70; 6HR MAX TEMP:  76;

WASKISH        MOSUNNY   73  54  49 W15G23    29.95S
BIG FORK       SUNNY     73  46  38 W8G16     29.94F
LONGVILLE      SUNNY     75  48  38 W9G16     29.97F
GRAND RAPIDS   SUNNY     75  46  35 NW21G29   29.96S
CRANE LAKE     CLOUDY    63  57  82 NW2       29.91S
ORR            SUNNY     73  46  38 W14G22    29.89S
COOK           MOSUNNY   72  50  46 W8        29.91F
WALKER         FAIR      74  50  42 NW13      29.98F
$$
MNZ012-019>021-037-010100-
   Northeast Minnesota

CITY           SKY/WX    TMP DP  RH WIND       PRES   REMARKS
DULUTH         MOSUNNY   76  47  35 NW17G24   29.92F
6HR MIN TEMP:  72; 6HR MAX TEMP:  79;

ELY            PTSUNNY   68  55  64 NW6       29.90F
HIBBING        SUNNY     74  48  39 W13G24    29.93S
EVELETH        SUNNY     72  45  37 NW13G23   29.93S
DULUTH HARBOR  SUNNY     79  52  38 W22       29.90F
TWO HARBORS    PTSUNNY   75  57  53 W5        29.88F
SILVER BAY     MOSUNNY   73  55  53 CALM      29.88S
GRAND MARAIS     N/A     72  53  51 VRB6      29.83F
G MARAIS ARPRT MOSUNNY   64  52  63 W8G21     29.88F
$$
MNZ029>031-032-039>041-046>048-054>057-064-010100-
   West Central Minnesota

CITY           SKY/WX    TMP DP  RH WIND       PRES   REMARKS
FERGUS FALLS   SUNNY     79  57  47 NW7       29.99F
WHEATON        SUNNY     79  59  50 W3        30.02F
MORRIS         SUNNY     81  61  50 NW6       30.01F
ALEXANDRIA     SUNNY     78  57  48 NW7       30.03F
ELBOW LAKE     FAIR      78  59  52 NW8       30.01F
WADENA         MOSUNNY   75  55  50 NW8       30.00F
GLENWOOD       SUNNY     79  55  44 W9        30.03F
APPLETON       SUNNY     82  54  36 CALM      30.01F
BENSON         SUNNY     81  55  41 N6        30.02F
ORTONVILLE     SUNNY     82  55  39 NW3       30.01F
MADISON        SUNNY     81  55  41 CALM      30.02F
WILLMAR        FAIR      81  57  44 W6        30.03F
$$
MNZ033>034-036-042>043-049>051-058-059-010100-
   Central Minnesota

CITY           SKY/WX    TMP DP  RH WIND       PRES   REMARKS
ST CLOUD       MOSUNNY   79  53  40 W13       29.99F
6HR MIN TEMP:  79; 6HR MAX TEMP:  82;

SAUK CENTRE    FAIR      77  56  47 W12       30.02F
PAYNESVILLE    SUNNY     76  53  44 SW10      30.02F
AITKIN         SUNNY     77  48  36 W3        29.95F
PINE RIVER     SUNNY     77  48  36 NW9G18    30.01F
BRAINERD       SUNNY     78  46  32 NW16G23   29.98F
STAPLES        MOSUNNY   75  52  43 NW12G20   29.99F
LONG PRAIRIE     N/A     77  54  44 W10       30.02F
LITTLE FALLS   MOSUNNY   79  48  34 W10G18    29.99F
LITCHFIELD     SUNNY     79  55  44 W8        30.02F
BUFFALO        SUNNY     80  53  40 W13       30.00F
MAPLE LAKE     SUNNY     79  57  47 W8        30.01F
$$
MNZ037-044-045-052-053-010100-
   East Central Minnesota

CITY           SKY/WX    TMP DP  RH WIND       PRES   REMARKS
PRINCETON      SUNNY     81  54  39 W9        29.98F
MORA           SUNNY     75  46  35 NW9       29.98F
CAMBRIDGE      MOSUNNY   81  57  44 W5        29.96F
RUSH CITY      SUNNY     76  51  41 CALM      29.96F
MOOSE LAKE     SUNNY     75  46  35 NW7       29.93F
HINCKLEY       FAIR      77  52  41 W7        29.96S
CLOQUET        SUNNY     75  43  31 W13       29.94S
MCGREGOR       MOSUNNY   77  46  33 NW13G22   29.96F
$$
MNZ071>073-080-081-089-090-097-098-010100-
   Southwest Minnesota

CITY           SKY/WX    TMP DP  RH WIND       PRES   REMARKS
MONTEVIDEO     SUNNY     82  61  47 CALM      30.04F
GRANITE FALLS  SUNNY     80  60  51 CALM      30.04F
CANBY          SUNNY     80  61  52 E3        30.04F
MARSHALL       SUNNY     81  57  44 CALM      30.05F
REDWOOD FALLS  SUNNY     81  56  42 W6        30.02F
OLIVIA         SUNNY     77  55  47 NW6       30.02F
PIPESTONE      SUNNY     79  63  57 CALM      30.08S
WINDOM         SUNNY     79  55  44 CALM      30.06F
WORTHINGTON    SUNNY     79  59  50 W3        30.07F
JACKSON        SUNNY     79  57  47 NW5       30.07F
TRACY          SUNNY     81  61  50 SE3       30.05F
SLAYTON        SUNNY     80  59  49 CALM      30.07F
$$
MNZ065>067-074>077-082>085-091>093-010100-
   South Central Minnesota

CITY           SKY/WX    TMP DP  RH WIND       PRES   REMARKS
MANKATO        SUNNY     79  54  41 NW9       30.02F
NEW ULM        SUNNY     79  55  44 NW6       30.03S
ST JAMES       SUNNY     81  61  50 W6        30.05F
FAIRMONT       SUNNY     81  54  39 NW6       30.05F
GLENCOE        SUNNY     79  60  51 NW3       30.01F
FARIBAULT      SUNNY     77  57  50 W7        30.02S
OWATONNA       SUNNY     77  59  53 W5        30.02F
WASECA         SUNNY     77  59  53 W7        30.04F
ALBERT LEA     SUNNY     79  57  47 CALM      30.04S
$$
MNZ078>079-086>088-094>096-010100-
   Southeast Minnesota

CITY           SKY/WX    TMP DP  RH WIND       PRES   REMARKS
ROCHESTER      SUNNY     75  56  51 NW12      30.02F
6HR MIN TEMP:  75; 6HR MAX TEMP:  78;

RED WING       SUNNY     81  50  34 N3        29.96F
STANTON        SUNNY     78  54  43 NW9       29.98F
DODGE CENTER   SUNNY     75  54  46 NW8       30.02F
WINONA         SUNNY     79  50  36 NW7       29.97F
AUSTIN         SUNNY     79  57  47 NW5       30.03S
PRESTON        SUNNY     75  56  50 NW9       30.02F
$$
ABBREVIATIONS USED IN REMARKS
   TC - TEMPERATURES IN CELSIUS
  WCI - WIND CHILL INDEX
   HX - HEAT INDEX
  VSB - VISIBILITY
$$


USA.gov is the U.S. government's official web portal to all federal, state and local government web resources and services.